Location: *
(46.1333°S, 161.2167°W)
Time: 04:00:49
(UTC+00:00)

Cosmos 990 Rocket - Pass Details

Date: 15 July 2020
Orbit: 748 x 768 km, 74.0° (Epoch: 10 August)

Event Time Altitude Azimuth Distance (km) Brightness Sun altitude
Exits shadow 15:30:21 61° 36° (NE) 881 4.3 -29.0°
Drops below altitude 10° 15:34:40 10° 23° (NNE) 2,314 6.7 -28.3°
Sets 15:37:02 0° 22° (NNE) 3,234 7.6 -27.9°
